Location: N�rnberg
(49.4489°N, 11.0797°E)
Time: 18:52:53
(UTC+01:00)

ISS - Pass Details

Date: 12 November 2017
Orbit: 402 x 407 km, 51.6° (Epoch: 19 November)

Event Time Altitude Azimuth Distance (km) Brightness Sun altitude
Exits shadow 05:52:43 32° 284° (WNW) 720 -3.2 -14.5°
Maximum altitude 05:54:05 81° 202° (SSW) 412 -3.9 -14.3°
Drops below altitude 10° 05:57:21 10° 114° (ESE) 1,453 0.3 -13.8°
Sets 05:59:25 0° 113° (ESE) 2,311 1.8 -13.5°
